Regional Weather Roundup
Issued by NWS

Home | Current Version | Previous Version | Text Only | Print | Product List | Glossary On
Versions: 1 2 3 4 5 6 7 8 9 10 11 12 13 14 15 16 17 18 19 20 21 22 23 24 25 26 27 28 29 30 31 32 33 34 35 36 37 38 39 40 41 42 43 44 45 46 47 48 49 50
000
ASPQ40 PGUM 132212
RWRPQ
WEATHER ROUNDUP FOR THE MARIANAS AND MICRONESIA
NATIONAL WEATHER SERVICE TIYAN GU
800 AM CHST MON JUL 14 2014

GUZ001>004-132300-
MARIANA ISLANDS-

CITY           SKY/WX    TMP DP  RH WIND       PRES   REMARKS
GUAM AIRPORT   MOSUNNY   82  75  78 E8        29.86S
ANDERSEN AFB   MOSUNNY   82  75  78 SE13      29.86S
ROTA AIRPORT   MOSUNNY   82  77  83 SE12      29.88R HX  91
TINIAN AP      MOSUNNY   84  75  74 E7        29.84S HX  92
SAIPAN AP      SUNNY     84  75  74 E10       29.86S HX  92

$$

PMZ161-132300-
REPUBLIC OF PALAU-

CITY           SKY/WX    TMP DP  RH WIND       PRES   REMARKS
KOROR AP       PTSUNNY   81  79  94 S7        29.81R
KOROR WSO      CLOUDY    81  77  89 SE5       29.80S

$$

PMZ171>174-132300-
FEDERATED STATES OF MICRONESIA-

CITY           SKY/WX    TMP DP  RH WIND       PRES   REMARKS
YAP AIRPORT    PTSUNNY   82  77  83 W9        29.80R HX  91
CHUUK AP       CLOUDY    82  77  83 VRB5      29.83R HX  91
POHNPEI AP     NOT AVBL
POHNPEI WSO    CLOUDY    81  75  83 E3        29.89R
KOSRAE AP      NOT AVBL

$$

PMZ181-132300-
REPUBLIC OF THE MARSHALL ISLANDS-

CITY           SKY/WX    TMP DP  RH WIND       PRES   REMARKS
KWAJALEIN AP   SUNNY     82  73  74 E13       29.86R
MAJURO AP      NOT AVBL
MAJURO WSO     PTSUNNY   82  77  83 NE10      29.84R HX  91

$$




USA.gov is the U.S. government's official web portal to all federal, state and local government web resources and services.